Regional Weather Roundup
Issued by NWS Kansas City/Pleasant Hill, MO

Home | Current Version | Previous Version | Graphics & Text | Print | Product List | Glossary Off
Versions: 1 2 3 4 5 6 7 8 9 10 11 12 13 14 15 16 17 18 19 20 21 22 23 24 25 26 27 28 29 30 31 32 33 34 35 36 37 38 39 40 41 42 43 44 45 46 47 48 49 50

000
ASUS43 KEAX 242211
RWREAX

WEATHER ROUNDUP FOR EASTERN KANSAS AND NORTHWEST MISSOURI
NATIONAL WEATHER SERVICE KANSAS CITY/PLEASANT HILL MO
400 PM CST WED DEC 24 2014

KSZ040-057-103>105-MOZ028-029-037-043-242300-
...KANSAS CITY METROPOLITAN AREA...

CITY           SKY/WX    TMP DP  RH WIND       PRES   REMARKS
K.C. INTL      CLOUDY    35  30  82 W12       29.81R WCI  27
K.C. DOWNTOWN  CLOUDY    38  30  73 W8        29.83R WCI  32
LEES SUMMIT    CLOUDY    37  30  75 W8        29.82R WCI  31
OLATHE - IXD   CLOUDY    34  30  85 W9        29.84R WCI  27
OLATHE - OJC   CLOUDY    35  29  78 W8        29.82S WCI  29
LAWRENCE       CLOUDY    35  29  78 W9        29.85R WCI  28

$$

MOZ001>008-011>017-020>025-030>033-038>040-044>046-053-054-242300-
...NORTHERN AND CENTRAL MISSOURI...

CITY           SKY/WX    TMP DP  RH WIND       PRES   REMARKS
ST. JOSEPH     CLOUDY    35  29  78 NW8       29.83R WCI  29
MOSBY          CLOUDY    37  32  81 W10       29.81R WCI  30
WARRENSBURG    CLOUDY    37  32  81 W9        29.81R WCI  31
WHITEMAN AFB   CLOUDY    37  33  87 W10       29.80R WCI  29
CLINTON        CLOUDY    37  34  87 W8        29.84R WCI  31
SEDALIA        CLOUDY    37  34  89 W10       29.80R WCI  30
WARSAW         NOT AVBL
MARSHALL       CLOUDY    39  37  93 W14       29.79R FOG     WCI  31
CHILLICOTHE      N/A     37  32  82 W8G17     29.78R WCI  31
MOBERLY        CLOUDY    37  32  81 W14G21    29.75  WCI  29
KIRKSVILLE     CLOUDY    35  33  92 W12       29.73R WCI  27

$$

MOZ041-047>049-056>058-063>065-088>090-097-242300-
...EASTERN AND SOUTHERN MISSOURI...

CITY           SKY/WX    TMP DP  RH WIND       PRES   REMARKS
ST. LOUIS INTL LGT RAIN  39  34  82 W15       29.71R WCI  31
SPIRIT OF STL  LGT RAIN  38  34  85 W12       29.71R WCI  30
COLUMBIA       CLOUDY    38  33  82 W17       29.75R WCI  28
JEFFERSON CITY CLOUDY    39  33  79 W13G22    29.77R WCI  31
MEXICO         CLOUDY    39  37  93 W8        29.72R WCI  34
HANNIBAL       CLOUDY    39  32  75 NW14G20   29.70R WCI  31
ROLLA          CLOUDY    36  33  89 W10       29.73R WCI  28
LEBANON        CLOUDY    36  32  87 W13G22    29.79R WCI  27
OSAGE BEACH    CLOUDY    37  32  81 W7        29.78R WCI  32
SPRINGFIELD    CLOUDY    37  32  82 NW10      29.82R WCI  30
BRANSON        CLOUDY    37  32  81 NW12G17   29.83R WCI  30
NEVADA         CLOUDY    37  30  75 W9G17     29.86S WCI  31
JOPLIN         CLOUDY    37  30  75 W15       29.89R WCI  28
WEST PLAINS    CLOUDY    38  31  76 W9G20     29.79R WCI  31

$$

IAZ060-094-KSZ022-034>040-054-083-096-NEZ052-066-093-242300-
...KANSAS...SOUTHEAST NEBRASKA AND IOWA...

CITY           SKY/WX    TMP DP  RH WIND       PRES   REMARKS
TOPEKA         CLOUDY    37  30  75 W8        29.86R WCI  31
MANHATTAN      CLOUDY    35  29  78 SW5       29.84F WCI  31
EMPORIA        CLOUDY    34  29  82 W8        29.86S WCI  27
CHANUTE        CLOUDY    37  30  75 W12       29.87F WCI  29
WICHITA        MOSUNNY   45  25  45 W10       29.86S
OMAHA          CLOUDY    31  27  85 W7        29.78F WCI  24
LINCOLN        CLOUDY    32  26  78 W8        29.79S WCI  25
FALLS CITY     CLOUDY    33  29  85 W12       29.81R WCI  24
LAMONI         CLOUDY    34  31  88 W15       29.74R WCI  24
DES MOINES     CLOUDY    35  30  82 NW13      29.72R WCI  26

$$



USA.gov is the U.S. government's official web portal to all federal, state and local government web resources and services.